[[{"header":{"parameterUnit":"m.s-1","parameterCategory":1,"la1":30.2992,"la2":30.254,"lo1":-89.0895,"lo2":-89.0443,"dy":0.0025,"dx":0.0025,"nx":19,"ny":19,"refTime":"2026-03-20T09:00:00:Z","depth":0,"parameterNumber":2,"parameterNumberName":"U-component_of_WINDS"},"data":[0,0,0,5.3996,5.4001,5.4199,5.4199,5.4476,5.4479,0,0,0,0,0,0,0,0,0,0,0,5.3953,5.3956,5.3996,5.4001,5.4199,5.4199,5.4476,5.4479,0,0,0,0,0,0,0,0,0,0,0,5.3952,5.3955,5.3958,5.4002,5.4198,5.4199,5.4475,5.4317,0,0,0,0,0,0,0,0,0,0,5.4121,5.4097,5.3954,5.3958,5.4003,5.4198,5.4199,5.4309,5.4327,5.4397,0,5.4464,0,5.4476,5.4499,5.45,0,0,0,5.399,5.4082,5.4121,5.3958,5.4005,5.4198,5.4106,5.4319,5.4339,5.4421,5.4468,5.4477,5.4481,5.4501,5.4502,5.4944,5.4946,0,0,5.3979,5.3997,5.4107,5.4135,5.4107,5.41,5.4113,5.4331,5.4383,5.4469,5.4483,5.4485,5.4503,5.4505,5.4942,5.4945,0,0,0,5.3955,5.399,5.4023,5.4124,5.4158,5.4106,5.4121,5.4373,5.4382,5.4486,5.4488,5.4505,5.4508,5.4939,5.4943,5.5087,0,0,0,5.3948,5.3976,5.4019,5.4032,5.4155,5.4268,5.4159,5.4367,5.4391,5.4487,5.4505,5.4511,5.4936,5.4941,5.5077,5.5152,0,0,0,5.3935,5.3974,5.4008,5.4033,5.4118,5.4264,5.4286,5.4372,5.4394,5.45,5.4512,5.4934,5.494,5.5068,5.5137,5.5272,0,0,0,5.3926,5.4135,5.4011,5.4245,5.4117,5.4353,5.4284,5.4459,5.4568,5.4506,5.4936,5.4942,5.5065,5.5128,5.5262,5.5387,5.5441,0,0,5.42,5.4169,5.4305,5.4199,5.4462,5.4321,5.4605,5.4688,5.4682,5.4857,5.4867,5.508,5.5136,5.527,5.5741,5.5784,0,0,0,5.4398,5.4496,5.4561,5.4666,5.4734,5.4797,5.4835,5.4865,5.5013,5.4776,5.5166,5.5198,5.5276,5.5334,5.5371,5.5435,5.4971,5.497,5.4969,5.481,5.4791,5.5014,5.5018,5.512,5.5156,5.5236,5.5283,5.5234,5.5327,5.5378,5.5667,5.5736,5.5764,5.5831,5.5444,5.5445,5.5445,5.5445,5.5208,5.5342,5.5271,5.5462,5.544,5.56,5.5643,5.5602,5.5747,5.5627,5.5694,5.5563,5.5812,5.5869,5.5456,5.5454,5.5453,5.5452,5.5451,5.5474,5.5535,5.5568,5.5715,5.5831,5.5827,5.5969,5.5944,5.5922,5.5989,5.6038,5.6036,5.6028,5.6015,5.6016,5.6017,5.6018,5.6018,5.6019,5.5736,5.5769,5.5892,5.5981,5.6043,5.6122,5.6159,5.622,5.628,5.6251,5.6251,5.6192,5.584,5.5751,5.6034,5.6032,5.603,5.6028,5.6027,5.6143,5.6047,5.6236,5.6299,5.64,5.6514,5.6481,5.6606,5.6653,5.6723,5.665,5.6395,5.6361,5.6332,5.6257,5.6655,5.6655,5.6655,5.6655,5.6366,5.6347,5.6533,5.6634,5.6731,5.6719,5.6932,5.6963,5.6979,5.7006,5.6945,5.6846,5.6817,5.68,5.6761,5.6691,5.7189,5.719,5.719,5.6614,5.6602,5.6788,5.6803,5.688,5.6946,5.7144,5.7262,5.7261,5.7211,5.7026,5.7003,5.6842,5.6791,5.6736,5.6675,5.6547,0,0]},{"header":{"parameterUnit":"m.s-1","parameterCategory":1,"la1":30.2992,"la2":30.254,"lo1":-89.0895,"lo2":-89.0443,"dy":0.0025,"dx":0.0025,"nx":19,"ny":19,"refTime":"2026-03-20T09:00:00:Z","depth":0,"parameterNumber":3,"parameterNumberName":"V-component_of_WINDS"},"data":[0,0,0,3.0115,3.012,3.0351,3.0352,3.0639,3.0641,0,0,0,0,0,0,0,0,0,0,0,3.0041,3.0043,3.0115,3.012,3.0351,3.0352,3.0638,3.0641,0,0,0,0,0,0,0,0,0,0,0,3.0041,3.0043,3.0045,3.0121,3.0351,3.0352,3.0638,3.0467,0,0,0,0,0,0,0,0,0,0,3.0244,3.0171,3.0042,3.0045,3.0122,3.035,3.0352,3.0459,3.0477,3.0531,0,3.0576,0,3.0613,3.066,3.0661,0,0,0,3.0125,3.0155,3.0222,3.0045,3.0124,3.035,3.0248,3.0469,3.049,3.0555,3.058,3.0591,3.0618,3.0662,3.0663,3.0953,3.0954,0,0,3.0112,3.0081,3.0207,3.0235,3.0199,3.0241,3.0255,3.0482,3.0508,3.0581,3.0598,3.0623,3.0664,3.0666,3.0952,3.0953,0,0,0,3.0072,3.0071,3.0133,3.0223,3.0265,3.0247,3.0264,3.0498,3.052,3.0601,3.0626,3.0665,3.0669,3.095,3.0952,3.0978,0,0,0,3.0065,3.0048,3.0127,3.011,3.0261,3.0384,3.0274,3.0504,3.0531,3.0624,3.0665,3.0671,3.0949,3.0951,3.0974,3.0995,0,0,0,3.0028,3.0044,3.0076,3.0108,3.0206,3.0382,3.0417,3.0511,3.0546,3.0661,3.0672,3.0948,3.0951,3.0971,3.0991,3.1061,0,0,0,2.998,3.0097,3.0075,3.0215,3.0204,3.0395,3.0416,3.0561,3.0663,3.0667,3.0949,3.0952,3.097,3.0988,3.1058,3.1115,3.1136,0,0,3.011,3.0111,3.0196,3.0183,3.037,3.0362,3.0553,3.0677,3.0718,3.0872,3.088,3.0975,3.099,3.1061,3.1264,3.128,0,0,0,3.0226,3.0286,3.0343,3.0437,3.0533,3.0617,3.0714,3.076,3.0892,3.079,3.1021,3.1031,3.1074,3.1102,3.1116,3.1154,3.0964,3.0964,3.0963,3.0366,3.0409,3.0551,3.0621,3.0713,3.081,3.0888,3.0966,3.0985,3.1038,3.1085,3.1203,3.1235,3.1246,3.1285,3.1118,3.1118,3.1119,3.1119,3.0559,3.0651,3.067,3.0814,3.0859,3.0981,3.1079,3.1087,3.1207,3.1172,3.1212,3.1169,3.1262,3.1298,3.1121,3.1121,3.112,3.112,3.112,3.0656,3.0707,3.0759,3.0897,3.1,3.1067,3.118,3.1217,3.1253,3.1293,3.1345,3.1344,3.1348,3.1314,3.1315,3.1315,3.1316,3.1316,3.1316,3.0735,3.0792,3.0883,3.0992,3.1056,3.1145,3.1242,3.1306,3.1387,3.1405,3.1406,3.1418,3.1263,3.1223,3.1323,3.1322,3.1321,3.132,3.132,3.0915,3.088,3.1019,3.1083,3.1213,3.1311,3.1356,3.1483,3.1541,3.1595,3.1599,3.1478,3.1483,3.1472,3.1439,3.1589,3.1589,3.1589,3.1589,3.0996,3.1001,3.1151,3.125,3.1352,3.1405,3.1561,3.1636,3.1709,3.1747,3.1731,3.169,3.1678,3.169,3.1675,3.1645,3.1844,3.1844,3.1844,3.1109,3.1125,3.1251,3.132,3.1423,3.1511,3.1657,3.177,3.1846,3.1855,3.1778,3.1767,3.1702,3.1679,3.1688,3.1663,3.1609,0,0]}]]